Precipitable_Water
0.49 0.42 0.33 0.40 0.40 0.40 0.39 0.34 0.32 0.34 0.37 0.35 0.31 0.29 0.29 0.34 0.35 0.35 0.35 0.37 0.40 0.42 0.46 0.50 0.51 0.53 0.53 0.54 0.54 0.55 0.55 0.57 0.59 0.58 0.51 0.72 0.80 0.89 0.95 1.21 1.33 1.29 1.25 1.22
0.44 0.37 0.44 0.43 0.41 0.39 0.39 0.32 0.29 0.33 0.34 0.30 0.30 0.30 0.33 0.34 0.33 0.33 0.33 0.41 0.43 0.43 0.45 0.47 0.48 0.50 0.53 0.55 0.58 0.56 0.56 0.58 0.62 0.62 0.62 0.69 0.89 0.89 0.91 0.99 1.15 1.29 1.33 1.24
0.41 0.44 0.45 0.39 0.38 0.37 0.37 0.32 0.29 0.27 0.32 0.34 0.32 0.28 0.29 0.30 0.32 0.36 0.40 0.43 0.44 0.45 0.45 0.45 0.45 0.47 0.51 0.53 0.58 0.61 0.65 0.64 0.67 0.71 0.68 0.66 0.86 0.96 0.93 0.92 0.94 1.03 1.32 1.30
0.41 0.45 0.37 0.39 0.35 0.34 0.30 0.34 0.30 0.30 0.29 0.24 0.33 0.21 0.25 0.28 0.30 0.33 0.39 0.43 0.47 0.48 0.46 0.45 0.46 0.47 0.51 0.56 0.62 0.69 0.70 0.71 0.72 0.74 0.72 0.68 0.68 0.82 0.84 0.83 0.89 0.96 1.22 1.30
0.38 0.41 0.42 0.40 0.37 0.35 0.30 0.35 0.33 0.32 0.31 0.29 0.28 0.24 0.23 0.28 0.26 0.33 0.40 0.47 0.48 0.47 0.45 0.45 0.47 0.49 0.54 0.59 0.63 0.70 0.73 0.76 0.78 0.80 0.77 0.73 0.69 0.87 0.94 0.99 0.97 1.03 1.09 1.22
0.48 0.56 0.49 0.44 0.46 0.45 0.39 0.33 0.33 0.33 0.30 0.24 0.26 0.24 0.21 0.25 0.27 0.36 0.44 0.47 0.47 0.46 0.47 0.49 0.50 0.52 0.54 0.60 0.66 0.72 0.77 0.78 0.83 0.86 0.80 0.75 0.75 0.78 0.95 0.97 1.00 1.03 1.04 1.15
0.42 0.41 0.41 0.40 0.35 0.40 0.40 0.31 0.25 0.23 0.24 0.21 0.26 0.22 0.22 0.30 0.36 0.40 0.45 0.46 0.47 0.47 0.48 0.46 0.47 0.49 0.52 0.56 0.65 0.74 0.79 0.76 0.82 0.80 0.80 0.81 0.79 0.78 0.98 1.00 1.11 1.08 1.04 1.08
0.28 0.25 0.33 0.37 0.33 0.31 0.30 0.29 0.25 0.19 0.19 0.20 0.28 0.19 0.29 0.44 0.47 0.48 0.48 0.49 0.49 0.47 0.46 0.43 0.44 0.49 0.51 0.55 0.63 0.76 0.82 0.77 0.84 0.85 0.84 0.87 0.88 0.85 1.05 1.13 1.17 1.17 1.09 1.11
0.25 0.26 0.35 0.34 0.36 0.35 0.31 0.27 0.31 0.25 0.26 0.22 0.23 0.28 0.42 0.47 0.45 0.47 0.47 0.48 0.45 0.43 0.42 0.41 0.42 0.46 0.51 0.55 0.65 0.76 0.84 0.85 0.86 0.85 0.85 0.92 1.07 1.08 1.14 1.14 1.22 1.28 1.22 1.18
0.30 0.25 0.32 0.31 0.35 0.35 0.35 0.36 0.26 0.26 0.18 0.17 0.19 0.20 0.24 0.40 0.40 0.42 0.41 0.41 0.43 0.44 0.43 0.43 0.41 0.44 0.50 0.57 0.68 0.79 0.90 0.85 0.88 0.88 0.91 1.06 1.19 1.14 1.12 1.17 1.19 1.20 1.20 1.14
0.32 0.27 0.27 0.30 0.28 0.26 0.27 0.28 0.31 0.31 0.29 0.20 0.18 0.21 0.40 0.38 0.39 0.38 0.40 0.41 0.41 0.41 0.42 0.42 0.41 0.45 0.51 0.57 0.69 0.78 0.88 0.88 0.89 0.90 0.93 1.01 1.14 1.15 1.14 1.15 1.19 1.27 1.21 1.14
0.31 0.25 0.20 0.23 0.29 0.27 0.25 0.25 0.25 0.20 0.20 0.23 0.23 0.22 0.43 0.41 0.40 0.40 0.39 0.38 0.39 0.40 0.40 0.39 0.37 0.43 0.51 0.55 0.66 0.75 0.83 0.86 0.90 0.91 0.93 0.96 1.03 1.09 1.19 1.21 1.21 1.27 1.26 1.24
0.30 0.24 0.20 0.21 0.24 0.25 0.22 0.24 0.23 0.22 0.20 0.16 0.16 0.19 0.41 0.39 0.35 0.31 0.32 0.29 0.28 0.30 0.33 0.35 0.37 0.42 0.50 0.54 0.62 0.73 0.81 0.84 0.90 0.91 0.96 1.00 1.05 1.09 1.13 1.24 1.32 1.33 1.30 1.24
0.29 0.22 0.18 0.15 0.18 0.22 0.19 0.20 0.20 0.18 0.15 0.13 0.14 0.13 0.24 0.21 0.15 0.20 0.30 0.28 0.26 0.27 0.32 0.36 0.41 0.43 0.50 0.55 0.60 0.68 0.76 0.82 0.86 0.88 0.93 0.98 1.03 1.08 1.15 1.17 1.28 1.32 1.30 1.20
0.26 0.18 0.18 0.18 0.19 0.18 0.16 0.15 0.14 0.12 0.11 0.09 0.09 0.09 0.10 0.18 0.26 0.28 0.31 0.31 0.26 0.27 0.36 0.41 0.43 0.46 0.51 0.54 0.59 0.66 0.73 0.78 0.80 0.83 0.90 0.91 1.00 1.00 1.08 1.11 1.15 1.22 1.25 1.24
0.25 0.18 0.17 0.13 0.14 0.14 0.11 0.12 0.12 0.12 0.11 0.10 0.10 0.12 0.28 0.29 0.34 0.33 0.32 0.31 0.27 0.29 0.38 0.42 0.45 0.49 0.53 0.52 0.57 0.65 0.69 0.74 0.78 0.80 0.82 0.86 0.91 0.95 0.99 1.03 1.06 1.07 1.15 1.16
0.16 0.14 0.10 0.08 0.11 0.10 0.07 0.10 0.11 0.11 0.14 0.19 0.16 0.23 0.27 0.29 0.34 0.32 0.32 0.33 0.29 0.32 0.39 0.44 0.47 0.50 0.52 0.54 0.58 0.62 0.67 0.71 0.74 0.76 0.77 0.82 0.86 0.89 0.93 0.94 0.98 0.99 1.02 1.03
0.12 0.11 0.09 0.08 0.09 0.07 0.18 0.23 0.22 0.19 0.22 0.25 0.24 0.25 0.28 0.32 0.35 0.34 0.36 0.33 0.31 0.37 0.43 0.44 0.48 0.50 0.52 0.55 0.58 0.62 0.65 0.67 0.69 0.72 0.74 0.76 0.81 0.83 0.86 0.88 0.88 0.92 0.95 0.96
0.17 0.15 0.13 0.11 0.11 0.14 0.18 0.22 0.21 0.20 0.21 0.26 0.25 0.27 0.32 0.35 0.35 0.33 0.36 0.35 0.40 0.43 0.45 0.47 0.49 0.51 0.53 0.55 0.57 0.57 0.59 0.63 0.65 0.67 0.69 0.72 0.73 0.76 0.78 0.80 0.80 0.84 0.87 0.90
0.22 0.21 0.18 0.15 0.11 0.10 0.20 0.26 0.31 0.31 0.18 0.29 0.29 0.30 0.32 0.34 0.26 0.30 0.39 0.41 0.43 0.45 0.46 0.46 0.49 0.52 0.52 0.53 0.55 0.53 0.54 0.57 0.60 0.63 0.66 0.69 0.71 0.72 0.73 0.75 0.76 0.79 0.83 0.85
0.19 0.19 0.15 0.15 0.15 0.19 0.26 0.30 0.34 0.18 0.22 0.33 0.33 0.33 0.35 0.32 0.34 0.38 0.40 0.41 0.43 0.43 0.44 0.47 0.48 0.48 0.50 0.52 0.52 0.50 0.51 0.51 0.56 0.60 0.63 0.64 0.66 0.68 0.69 0.71 0.74 0.75 0.78 0.80
0.18 0.17 0.17 0.18 0.16 0.14 0.31 0.30 0.24 0.31 0.36 0.36 0.36 0.36 0.36 0.37 0.38 0.38 0.39 0.40 0.41 0.41 0.44 0.46 0.46 0.46 0.48 0.49 0.49 0.48 0.47 0.50 0.52 0.54 0.56 0.59 0.61 0.62 0.64 0.66 0.69 0.71 0.72 0.73
0.18 0.23 0.21 0.22 0.21 0.31 0.33 0.33 0.37 0.39 0.36 0.37 0.37 0.37 0.38 0.37 0.37 0.38 0.38 0.40 0.41 0.43 0.43 0.44 0.43 0.43 0.45 0.45 0.46 0.44 0.45 0.47 0.48 0.48 0.49 0.51 0.54 0.57 0.59 0.59 0.60 0.63 0.66 0.66
0.27 0.32 0.25 0.26 0.29 0.31 0.33 0.37 0.39 0.40 0.38 0.39 0.39 0.39 0.39 0.37 0.38 0.38 0.39 0.40 0.41 0.42 0.41 0.42 0.41 0.40 0.40 0.42 0.43 0.43 0.44 0.43 0.44 0.44 0.45 0.46 0.47 0.48 0.51 0.53 0.55 0.55 0.57 0.57
0.27 0.30 0.27 0.27 0.30 0.32 0.34 0.37 0.39 0.39 0.40 0.39 0.40 0.40 0.38 0.37 0.37 0.37 0.37 0.37 0.37 0.36 0.36 0.35 0.34 0.34 0.34 0.35 0.36 0.37 0.38 0.39 0.37 0.37 0.39 0.41 0.42 0.43 0.44 0.46 0.47 0.48 0.51 0.53
0.26 0.26 0.24 0.25 0.33 0.34 0.34 0.39 0.40 0.39 0.38 0.39 0.38 0.37 0.38 0.37 0.34 0.34 0.33 0.34 0.33 0.33 0.33 0.32 0.31 0.31 0.30 0.30 0.29 0.30 0.31 0.30 0.30 0.29 0.30 0.31 0.34 0.36 0.38 0.40 0.41 0.44 0.45 0.47
Wind_Speed
39 38 45 41 40 38 30 31 30 25 26 25 29 29 28 25 25 24 24 20 19 19 20 21 22 24 26 28 31 33 35 37 39 40 41 44 46 48 49 49 48 46 44 41
35 43 42 38 38 38 37 35 34 31 30 28 28 28 26 26 26 23 20 18 17 18 19 20 22 24 26 29 32 35 38 39 40 42 43 44 45 46 48 49 49 48 46 43
36 36 31 38 37 36 37 36 32 29 23 26 27 29 26 20 18 18 17 16 17 18 19 21 23 25 28 31 33 36 38 40 42 43 45 45 45 44 44 46 49 50 47 44
34 33 35 33 38 37 36 30 29 27 25 23 21 17 19 18 18 18 17 17 17 18 20 22 24 26 29 31 34 37 38 39 39 41 43 44 43 42 41 40 43 48 48 44
29 31 31 31 29 29 30 25 27 28 26 26 26 21 17 19 17 18 17 16 16 18 20 22 25 27 29 32 34 36 37 37 38 39 40 42 41 40 38 37 37 41 46 46
29 22 23 25 27 29 23 21 24 24 24 26 26 22 16 20 18 15 15 15 16 18 20 22 25 27 29 32 34 35 35 34 34 34 34 37 40 39 36 35 34 35 40 43
23 26 25 23 22 22 26 20 17 19 21 23 15 20 15 15 14 14 14 15 16 18 20 23 25 26 29 32 34 33 31 29 28 28 30 32 37 39 36 35 33 33 36 39
18 16 25 20 24 19 25 25 17 16 18 18 15 18 14 14 13 12 14 15 16 18 19 22 25 26 29 32 32 31 27 25 26 26 26 27 31 35 34 34 32 32 34 37
17 16 15 15 17 17 19 25 23 19 15 15 16 14 12 14 15 15 15 15 16 18 19 22 24 26 29 30 30 29 23 23 23 21 21 22 26 30 31 32 31 31 31 35
11 11 13 12 14 14 15 16 16 18 20 23 20 19 15 14 13 13 13 15 16 17 19 22 24 27 28 29 28 26 20 20 19 17 15 17 22 26 30 31 31 31 31 32
11 13 13 13 12 12 14 16 17 15 16 16 19 14 13 13 13 13 14 16 17 19 20 22 24 26 27 27 26 22 19 18 17 15 14 16 20 24 26 28 30 30 30 32
14 11 10 11 12 14 15 15 16 17 18 17 17 18 15 14 15 17 18 19 20 21 22 23 25 25 25 25 22 20 18 17 16 14 15 16 17 20 23 26 27 29 30 32
13 11 11 12 13 13 15 15 15 15 16 20 19 16 14 14 17 19 22 22 23 23 23 23 23 23 23 23 21 19 17 16 14 13 12 13 14 15 18 22 24 27 29 31
11 11 13 13 9 9 12 14 13 14 15 15 19 20 17 21 25 25 22 23 23 22 21 21 21 21 21 20 19 18 17 13 13 11 11 11 13 16 14 17 16 23 25 27
11 12 13 10 10 11 11 14 16 18 19 17 18 20 22 25 27 25 23 23 22 21 20 20 19 19 18 17 16 16 15 14 13 11 10 10 13 15 10 12 15 19 22 25
9 9 10 11 12 13 15 16 17 19 20 22 23 24 20 25 22 22 23 22 22 21 19 18 17 16 14 14 13 13 14 12 10 7 9 8 11 15 14 14 16 20 23 24
8 8 9 8 8 9 13 13 17 17 17 18 22 22 25 26 22 21 21 20 19 18 16 15 13 11 10 10 10 11 12 10 8 8 7 6 4 4 9 10 12 15 21 25
8 7 7 6 7 9 7 9 10 14 19 19 21 23 21 16 16 17 17 16 13 10 9 9 8 7 7 7 7 8 9 10 9 8 6 4 4 2 2 4 7 13 15 15
7 6 5 7 8 6 8 9 12 13 15 16 19 18 15 11 9 8 7 5 5 4 4 4 3 3 3 4 5 6 8 9 9 8 7 5 4 3 3 4 6 8 14 17
7 6 7 6 7 8 5 9 12 11 12 9 11 12 9 7 5 2 2 3 2 1 3 1 1 1 2 4 5 6 7 8 9 10 8 6 5 4 4 4 5 4 9 12
4 5 7 6 6 3 7 12 7 6 4 6 6 7 9 6 3 4 3 3 3 5 5 4 4 4 4 5 6 7 8 9 9 9 10 9 7 5 4 3 4 3 5 11
5 5 4 5 6 5 9 3 4 3 2 2 2 4 7 7 5 5 6 6 7 6 6 6 6 6 6 7 7 8 8 8 9 9 9 10 9 8 5 4 2 2 2 4
5 5 3 4 1 2 2 2 1 1 3 5 7 8 9 10 10 10 9 9 8 8 7 7 7 6 6 7 7 8 9 9 9 9 9 9 9 8 7 6 4 2 1 1
4 4 2 5 1 1 2 3 5 6 7 8 9 10 12 13 12 12 11 10 9 8 8 7 7 7 7 8 8 8 8 8 9 9 9 8 8 8 8 7 6 5 3 3
3 5 5 3 4 3 4 4 6 6 7 9 10 10 11 11 11 11 10 10 9 8 8 8 7 7 8 8 9 10 10 10 9 9 9 9 9 8 8 8 7 6 6 6
4 6 7 4 5 5 7 7 7 8 8 9 10 10 10 11 11 11 10 9 8 8 8 8 8 8 9 10 10 11 11 11 11 11 11 11 11 11 11 10 9 9 8 8
Wind_Direction
248 246 246 245 244 247 258 256 253 249 251 260 258 260 259 258 259 259 262 260 264 267 272 278 282 283 283 282 279 277 274 271 267 263 259 255 253 251 249 247 245 244 243 244
242 246 246 246 247 245 248 249 252 257 258 255 258 258 256 257 257 258 252 254 262 269 276 282 286 287 288 288 285 281 278 274 270 265 261 258 255 252 249 246 245 242 242 241
242 249 243 245 244 243 244 246 249 251 248 250 257 260 253 250 244 245 248 257 264 272 280 286 290 291 292 292 291 287 283 278 273 268 262 258 254 252 249 246 243 241 238 237
247 250 252 251 243 239 241 239 245 247 248 251 241 256 237 241 236 240 244 256 266 275 284 289 292 295 297 296 296 293 288 282 276 270 263 255 251 248 246 246 243 237 234 233
244 235 235 241 236 230 240 240 241 243 246 250 247 253 243 229 236 234 244 257 267 279 289 293 296 298 299 301 301 298 293 284 278 272 263 252 246 244 244 243 240 234 230 230
243 246 239 239 240 242 241 240 239 241 242 246 246 241 233 231 235 233 245 259 273 284 292 297 300 302 303 306 306 302 297 289 283 272 262 249 244 239 239 237 237 232 229 229
239 237 239 238 238 236 231 233 232 235 234 244 240 239 237 228 242 247 252 266 278 287 294 301 305 306 310 311 312 306 299 292 285 275 263 251 242 234 235 234 234 231 230 226
238 240 230 233 238 237 223 223 232 235 239 242 236 246 239 241 245 247 263 271 280 290 297 303 308 309 312 314 315 310 301 291 290 280 264 251 238 229 231 230 232 231 228 227
230 235 231 231 235 234 222 229 240 255 253 255 243 238 245 243 248 257 267 273 283 292 299 306 310 314 315 317 316 313 299 297 293 282 264 249 232 226 225 225 228 230 227 224
241 225 232 225 225 225 236 221 233 239 249 249 249 250 250 240 250 259 269 278 284 293 301 306 312 315 317 319 317 314 301 299 295 283 263 246 229 226 226 226 227 227 225 221
248 246 222 226 234 230 228 233 241 248 251 255 258 253 248 245 257 265 274 281 288 295 300 305 312 316 317 319 317 313 306 304 295 279 268 250 236 227 226 227 224 223 221 218
218 234 219 232 243 243 244 244 246 247 244 251 258 260 251 253 262 273 277 283 287 291 296 301 307 313 317 319 316 313 309 298 297 281 269 254 239 231 229 225 222 223 221 217
226 232 238 245 246 246 244 244 243 245 250 252 256 260 253 260 266 272 277 283 286 289 294 299 304 308 313 316 316 315 307 302 289 282 275 252 239 232 233 228 224 222 218 218
227 230 248 252 254 243 239 234 240 242 247 259 252 268 262 274 281 284 274 281 283 287 293 296 300 305 309 312 313 315 311 304 302 279 271 259 247 238 237 228 222 218 216 216
238 241 246 251 245 246 245 242 246 250 254 259 268 273 279 283 286 282 275 281 281 284 288 293 297 301 304 308 311 318 318 315 300 294 279 275 252 233 239 231 229 225 220 217
241 234 240 246 251 255 258 257 257 257 261 264 269 273 285 290 283 280 277 278 280 280 282 288 291 294 296 304 311 320 326 324 309 307 307 295 271 244 248 242 245 238 227 222
233 230 236 249 251 261 262 265 264 260 264 271 274 286 292 289 274 280 278 276 276 274 275 281 285 289 290 304 313 325 335 334 334 325 321 326 315 236 239 253 255 234 223 227
219 219 234 245 252 262 276 282 279 275 278 279 281 291 291 288 280 281 281 272 268 262 266 275 277 279 295 307 322 334 346 351 350 348 340 339 352 5 287 260 276 222 219 210
220 227 241 254 252 283 272 290 287 285 278 285 288 287 275 272 278 284 275 225 215 237 262 251 274 261 307 329 339 349 358 5 9 4 2 354 354 342 328 313 312 231 219 215
219 244 253 249 270 268 294 305 299 287 271 291 292 287 254 236 233 205 167 168 175 221 165 150 115 84 36 17 17 17 17 16 15 14 12 8 5 6 2 354 351 221 202 201
213 238 241 244 271 281 295 308 303 260 307 312 315 301 234 207 192 173 159 143 131 121 109 105 92 77 55 39 34 31 27 26 21 22 27 27 21 8 6 10 19 57 183 197
228 225 239 251 268 271 321 280 289 308 321 332 45 74 124 141 143 132 129 124 118 106 97 87 81 69 53 42 37 35 31 25 24 25 26 29 27 28 23 16 26 48 123 173
234 256 267 282 291 319 15 48 17 44 98 94 94 95 106 111 112 115 115 112 102 93 86 77 71 62 48 37 31 27 24 22 21 20 21 23 22 23 22 23 21 27 19 205
205 204 188 189 156 109 122 95 104 95 104 101 102 105 104 105 105 104 105 102 95 85 76 67 60 50 40 30 23 16 7 4 5 5 4 4 9 11 8 4 1 352 336 298
219 199 184 175 169 149 137 126 125 118 112 110 107 108 107 106 101 99 93 87 80 71 63 55 47 39 28 21 15 7 0 353 350 349 347 345 344 343 344 351 345 336 334 317
224 208 210 205 182 156 149 143 135 124 119 121 119 112 108 106 103 98 90 83 75 67 55 48 40 32 23 17 11 3 357 352 346 341 336 332 327 324 319 314 313 323 320 316